SM6PGP-2 Weather Reports


Display with metric or nautical units.
time (UTC)temp
F
wind
direction
speed
MPH
gust
MPH
rain 1hr
in
rain 24hr
in
rain mn
in
humidity
%
barometer
mb
20260831160327 59 180 5.0 6.0 0.00 0.00 0.28 90 1003.6
20260831155822 59 144 4.0 5.0 0.00 0.00 0.28 90 1003.6
20260831155316 59 135 3.0 6.0 0.00 0.00 0.28 90 1003.7
20260831154812 58 135 4.0 6.0 0.00 0.00 0.28 89 1003.7
20260831154306 59 135 5.0 6.0 0.00 0.00 0.28 89 1003.7
20260831153256 59 58 1.0 4.0 0.00 0.00 0.28 89 1003.7
20260831152750 59 45 1.0 3.0 0.00 0.00 0.28 89 1003.9
20260831152246 59 180 0.0 1.0 0.00 0.00 0.26 89 1003.9
20260831151740 59 90 0.0 6.0 0.00 0.00 0.25 88 1003.9
20260831151235 59 90 3.0 6.0 0.00 0.00 0.25 88 1003.9
20260831150730 59 90 5.0 6.0 0.00 0.00 0.23 87 1003.9
20260831150224 59 90 2.0 4.0 0.00 0.00 0.22 88 1004.0
20260831145720 59 90 2.0 4.0 0.00 0.00 0.20 87 1003.9
20260831145214 59 90 2.0 3.0 0.00 0.00 0.18 86 1004.0
20260831144709 59 58 2.0 7.0 0.00 0.00 0.18 86 1004.1
20260831144204 59 90 3.0 5.0 0.00 0.00 0.17 86 1004.0
20260831143658 60 135 6.0 8.0 0.00 0.00 0.16 85 1004.1
20260831143154 60 180 8.0 8.0 0.00 0.00 0.14 86 1004.1
20260831142648 60 135 3.0 6.0 0.00 0.00 0.13 86 1004.0
20260831142143 60 90 1.0 5.0 0.00 0.00 0.12 86 1004.0
20260831141638 60 90 0.0 2.0 0.00 0.00 0.12 86 1004.1
20260831141132 60 90 2.0 2.0 0.00 0.00 0.12 86 1004.1
20260831140628 60 90 3.0 6.0 0.00 0.00 0.12 87 1004.0
20260831140122 60 90 2.0 5.0 0.00 0.00 0.11 86 1004.1
20260831135617 60 90 3.0 6.0 0.00 0.00 0.09 86 1004.1
20260831134604 59 63 6.0 6.0 0.00 0.00 0.09 86 1004.4
20260831134059 59 90 4.0 5.0 0.00 0.00 0.09 85 1004.4
20260831133553 58 135 4.0 4.0 0.00 0.00 0.09 84 1004.4
20260831133048 58 135 4.0 6.0 0.00 0.00 0.09 83 1004.5
20260831132543 58 94 3.0 8.0 0.00 0.00 0.08 83 1004.6
20260831132037 58 135 7.0 8.0 0.00 0.00 0.07 82 1004.5
20260831131533 58 121 4.0 9.0 0.00 0.00 0.06 82 1004.5
20260831131027 58 135 6.0 7.0 0.00 0.00 0.05 81 1004.6
20260831130522 59 135 7.0 10.0 0.00 0.00 0.05 81 1004.6
20260831130017 59 135 7.0 10.0 0.00 0.00 0.04 79 1004.6
20260831125511 59 135 6.0 11.0 0.00 0.00 0.04 79 1004.6
20260831125007 59 144 8.0 12.0 0.00 0.00 0.03 77 1004.6
20260831124501 60 135 10.0 13.0 0.00 0.00 0.02 75 1004.7
20260831123956 61 157 12.0 14.0 0.00 0.00 0.01 74 1004.8
20260831123451 62 180 12.0 17.0 0.00 0.00 0.00 72 1004.7
20260831122946 62 184 18.0 21.0 0.00 0.00 0.00 71 1004.6
20260831122441 63 144 7.0 13.0 0.00 0.00 0.00 70 1004.6
20260831121935 63 144 8.0 14.0 0.00 0.00 0.00 69 1004.6
20260831121430 63 153 10.0 18.0 0.00 0.00 0.00 69 1004.7
20260831120925 64 175 12.0 16.0 0.00 0.00 0.00 68 1004.7
20260831120420 64 180 14.0 16.0 0.00 0.00 0.00 68 1004.6
20260831115915 65 166 12.0 17.0 0.00 0.00 0.00 68 1004.7
20260831115409 65 175 13.0 15.0 0.00 0.00 0.00 68 1004.5
20260831114904 65 180 11.0 15.0 0.00 0.00 0.00 69 1004.5
20260831114359 65 180 10.0 18.0 0.00 0.00 0.00 69 1004.6
20260831113854 65 162 8.0 14.0 0.00 0.00 0.00 70 1004.7
20260831113349 65 153 10.0 13.0 0.00 0.00 0.00 70 1004.4
20260831112843 65 184 7.0 16.0 0.00 0.00 0.00 68 1004.5
20260831112338 65 216 7.0 16.0 0.00 0.00 0.00 69 1004.6
20260831111833 66 175 10.0 16.0 0.00 0.00 0.00 71 1004.7
20260831111328 65 189 13.0 15.0 0.00 0.00 0.00 72 1004.7
20260831110823 65 225 10.0 16.0 0.00 0.00 0.00 71 1004.6
20260831110317 65 198 11.0 13.0 0.00 0.00 0.00 70 1004.7
20260831105812 65 180 12.0 17.0 0.00 0.00 0.00 70 1004.7
20260831105307 66 180 15.0 18.0 0.00 0.00 0.00 70 1004.7
20260831104802 66 198 15.0 15.0 0.00 0.00 0.00 72 1004.7
20260831104257 65 139 11.0 11.0 0.00 0.00 0.00 72 1004.8
20260831103751 66 202 8.0 15.0 0.00 0.00 0.00 73 1004.7
20260831103246 66 184 16.0 17.0 0.00 0.00 0.00 75 1004.7
20260831102741 65 180 10.0 14.0 0.00 0.00 0.00 75 1004.8
20260831102236 64 180 9.0 10.0 0.00 0.00 0.00 74 1004.7
20260831101731 63 162 4.0 8.0 0.00 0.00 0.00 74 1004.8
20260831101225 64 180 10.0 11.0 0.00 0.00 0.00 73 1004.9
20260831100720 64 180 12.0 13.0 0.00 0.00 0.00 74 1004.9
20260831100215 63 180 9.0 13.0 0.00 0.00 0.00 74 1004.8
20260831095710 63 193 8.0 11.0 0.00 0.00 0.00 73 1004.8
20260831095205 63 180 9.0 13.0 0.00 0.00 0.00 73 1004.8
20260831094659 64 180 9.0 12.0 0.00 0.00 0.00 72 1004.8
20260831094154 64 180 9.0 17.0 0.00 0.00 0.00 72 1004.8
20260831093649 64 184 7.0 11.0 0.00 0.00 0.00 72 1004.9
20260831093144 64 207 10.0 14.0 0.00 0.00 0.00 71 1004.8
20260831092639 64 180 7.0 14.0 0.00 0.00 0.00 71 1004.9
20260831092133 64 171 8.0 15.0 0.00 0.00 0.00 72 1004.9
20260831091628 63 184 9.0 12.0 0.00 0.00 0.00 72 1004.9
20260831091123 63 180 9.0 12.0 0.00 0.00 0.00 72 1004.9
20260831090618 63 225 7.0 14.0 0.00 0.00 0.00 72 1004.9
20260831090113 63 193 10.0 14.0 0.00 0.00 0.00 72 1004.8
20260831085607 63 180 10.0 14.0 0.00 0.00 0.00 73 1004.8
20260831085102 64 225 12.0 14.0 0.00 0.00 0.00 72 1004.8
20260831084557 65 180 12.0 15.0 0.00 0.00 0.00 72 1004.9
20260831084052 65 180 11.0 16.0 0.00 0.00 0.00 72 1004.8
20260831083547 66 225 14.0 18.0 0.00 0.00 0.00 74 1004.7
20260831083041 66 207 8.0 15.0 0.00 0.00 0.00 76 1004.7
20260831082536 66 238 8.0 16.0 0.00 0.00 0.00 78 1004.7
20260831082031 65 198 14.0 17.0 0.00 0.00 0.00 80 1004.6
20260831081526 63 225 26.0 26.0 0.00 0.00 0.25 82 1004.6
20260831081021 62 184 14.0 15.0 0.00 0.00 0.25 82 1004.6
20260831080515 62 243 7.0 9.0 0.00 0.00 0.25 82 1004.6
20260831080010 61 238 6.0 11.0 0.00 0.00 0.25 82 1004.5
20260831075505 61 225 9.0 9.0 0.00 0.00 0.25 83 1004.5
20260831075000 61 256 11.0 11.0 0.00 0.00 0.25 83 1004.6
20260831074455 61 198 4.0 7.0 0.00 0.00 0.25 83 1004.6
20260831073949 60 184 4.0 5.0 0.00 0.00 0.25 83 1004.6
20260831073444 60 225 2.0 7.0 0.00 0.00 0.25 83 1004.7
20260831072939 60 225 5.0 6.0 0.00 0.00 0.24 83 1004.6
20260831072434 59 225 3.0 6.0 0.00 0.00 0.24 83 1004.6
20260831071929 59 225 4.0 6.0 0.00 0.00 0.24 82 1004.7
20260831071423 59 243 6.0 9.0 0.00 0.00 0.24 82 1004.6
20260831070918 60 211 3.0 8.0 0.00 0.00 0.24 82 1004.7
20260831070413 60 225 5.0 6.0 0.00 0.00 0.24 82 1004.7
20260831065908 60 225 6.0 6.0 0.00 0.00 0.24 82 1004.7
20260831065403 60 288 5.0 6.0 0.00 0.00 0.24 81 1004.6
20260831064858 60 225 4.0 7.0 0.00 0.00 0.24 81 1004.8
20260831064352 60 189 1.0 10.0 0.00 0.00 0.24 81 1004.6
20260831063847 60 265 7.0 9.0 0.00 0.00 0.24 82 1004.7
20260831063342 60 189 4.0 5.0 0.00 0.00 0.24 82 1004.7
20260831062837 60 225 4.0 7.0 0.00 0.00 0.24 82 1004.7
20260831062332 60 211 5.0 10.0 0.00 0.00 0.24 82 1004.7
20260831061826 60 225 5.0 6.0 0.00 0.00 0.24 82 1004.7
20260831061321 59 225 2.0 5.0 0.00 0.00 0.24 83 1004.6
20260831060816 59 270 2.0 7.0 0.00 0.00 0.24 82 1004.7
20260831060311 59 225 5.0 6.0 0.00 0.00 0.24 83 1004.6
20260831055806 59 225 10.0 10.0 0.00 0.00 0.24 83 1004.6
20260831055300 59 225 8.0 10.0 0.00 0.00 0.24 83 1004.5
20260831054755 58 225 5.0 12.0 0.00 0.00 0.24 83 1004.7
20260831054250 58 225 7.0 8.0 0.00 0.00 0.24 84 1004.7
20260831053745 58 216 6.0 6.0 0.00 0.00 0.24 84 1004.7
20260831053240 58 243 7.0 9.0 0.00 0.00 0.24 84 1004.6
20260831052734 57 229 5.0 10.0 0.00 0.00 0.24 85 1004.7
20260831052229 57 225 5.0 10.0 0.00 0.00 0.24 85 1004.7
20260831051724 56 238 9.0 11.0 0.00 0.00 0.24 84 1004.7
20260831051219 56 225 4.0 5.0 0.00 0.00 0.24 83 1004.7
20260831050714 55 225 6.0 6.0 0.00 0.00 0.24 84 1004.6
20260831050208 55 225 7.0 9.0 0.00 0.00 0.24 83 1004.6
20260831045703 55 225 4.0 6.0 0.00 0.00 0.24 83 1004.6
20260831045158 55 202 3.0 5.0 0.00 0.00 0.24 82 1004.6
20260831044653 55 180 2.0 7.0 0.00 0.00 0.24 82 1004.5
20260831044148 55 225 6.0 6.0 0.00 0.00 0.24 82 1004.5
20260831043642 55 225 5.0 9.0 0.00 0.00 0.24 82 1004.5
20260831043137 55 225 9.0 9.0 0.00 0.00 0.24 82 1004.5
20260831042632 55 225 6.0 10.0 0.00 0.00 0.24 81 1004.5
20260831042127 55 216 6.0 9.0 0.00 0.00 0.24 81 1004.4
20260831041622 55 234 10.0 10.0 0.00 0.00 0.24 81 1004.4
20260831041116 55 211 6.0 11.0 0.00 0.00 0.24 81 1004.5
20260831040611 56 225 6.0 9.0 0.00 0.00 0.24 80 1004.4
20260831040106 56 225 10.0 10.0 0.00 0.00 0.24 80 1004.5
20260831035601 56 211 6.0 10.0 0.00 0.00 0.24 80 1004.5
20260831035056 56 198 8.0 10.0 0.00 0.00 0.24 79 1004.5
20260831034551 56 211 7.0 7.0 0.00 0.00 0.24 79 1004.5
20260831034045 56 225 5.0 7.0 0.00 0.00 0.24 79 1004.5
20260831033540 56 229 6.0 8.0 0.00 0.00 0.24 79 1004.4
20260831033035 56 234 6.0 13.0 0.00 0.00 0.24 79 1004.5
20260831032530 57 229 13.0 13.0 0.00 0.00 0.24 79 1004.4
20260831032024 57 225 9.0 11.0 0.00 0.00 0.24 78 1004.6
20260831031519 57 220 8.0 16.0 0.00 0.00 0.24 79 1004.6
20260831031014 57 234 11.0 15.0 0.00 0.00 0.24 78 1004.5
20260831030509 57 207 6.0 11.0 0.00 0.00 0.24 79 1004.4
20260831030004 57 220 9.0 13.0 0.00 0.00 0.24 78 1004.5
20260831025459 57 207 7.0 10.0 0.00 0.00 0.24 78 1004.5
20260831024953 57 225 9.0 12.0 0.00 0.00 0.24 78 1004.5
20260831024448 57 220 10.0 15.0 0.00 0.00 0.24 78 1004.6
20260831023943 57 225 15.0 19.0 0.00 0.00 0.24 78 1004.5
20260831023438 57 189 9.0 15.0 0.00 0.00 0.24 77 1004.5
20260831022933 57 211 11.0 25.0 0.00 0.00 0.24 78 1004.4
20260831022427 58 229 14.0 17.0 0.00 0.00 0.24 78 1004.6
20260831021922 58 225 12.0 17.0 0.00 0.00 0.24 79 1004.5
20260831021417 58 225 11.0 27.0 0.00 0.00 0.24 79 1004.6
20260831020912 58 247 13.0 29.0 0.00 0.00 0.24 78 1004.5
20260831020407 58 225 13.0 20.0 0.00 0.00 0.24 79 1004.5
20260831015901 58 243 9.0 24.0 0.00 0.00 0.24 78 1004.5
20260831015356 58 225 8.0 13.0 0.00 0.00 0.24 78 1004.5
20260831014851 58 220 5.0 11.0 0.00 0.00 0.24 78 1004.4
20260831014346 58 229 7.0 17.0 0.00 0.00 0.24 78 1004.4
20260831013841 58 243 14.0 23.0 0.00 0.00 0.24 79 1004.3
20260831013335 58 261 18.0 18.0 0.00 0.00 0.24 78 1004.3
20260831012830 58 225 7.0 13.0 0.00 0.00 0.24 79 1004.4
20260831012325 57 247 14.0 36.0 0.00 0.00 0.24 79 1004.4
20260831011820 58 238 9.0 27.0 0.00 0.00 0.24 79 1004.4
20260831011315 58 234 21.0 25.0 0.00 0.00 0.24 79 1004.5
20260831010809 58 238 15.0 23.0 0.00 0.00 0.24 80 1004.4
20260831010304 58 229 13.0 23.0 0.00 0.00 0.24 80 1004.5
20260831005759 58 225 9.0 15.0 0.00 0.00 0.24 79 1004.5
20260831005254 58 225 8.0 15.0 0.00 0.00 0.24 79 1004.5
20260831004749 58 225 11.0 14.0 0.00 0.00 0.24 80 1004.5
20260831004243 58 229 19.0 29.0 0.00 0.00 0.24 79 1004.6
20260831003738 58 247 10.0 21.0 0.00 0.00 0.24 80 1004.6
20260831003233 58 243 11.0 13.0 0.00 0.00 0.24 80 1004.6
20260831002728 58 216 11.0 15.0 0.00 0.00 0.24 79 1004.6
20260831002223 58 220 9.0 22.0 0.00 0.00 0.24 80 1004.6
20260831001717 58 238 16.0 23.0 0.00 0.00 0.24 79 1004.5
20260831001212 58 225 8.0 18.0 0.00 0.00 0.24 80 1004.5
20260831000708 58 234 29.0 31.0 0.00 0.00 0.24 80 1004.5
20260831000203 58 225 12.0 14.0 0.00 0.00 0.24 80 1004.5
20260830235657 58 261 9.0 24.0 0.00 0.00 0.24 80 1004.5
20260830235151 58 234 8.0 20.0 0.00 0.00 0.24 80 1004.6
20260830234646 58 252 12.0 19.0 0.00 0.00 0.24 80 1004.6
20260830234142 58 225 15.0 17.0 0.00 0.00 0.24 81 1004.6
20260830233636 58 238 12.0 19.0 0.00 0.00 0.24 81 1004.5
20260830233131 58 234 13.0 21.0 0.00 0.00 0.24 81 1004.5
20260830232625 58 234 15.0 21.0 0.00 0.00 0.24 81 1004.4
20260830232120 58 279 17.0 17.0 0.00 0.00 0.24 81 1004.4
20260830231616 58 265 10.0 13.0 0.00 0.00 0.24 81 1004.4
20260830231110 58 247 15.0 15.0 0.00 0.00 0.24 81 1004.4
20260830230605 58 234 9.0 19.0 0.00 0.00 0.24 81 1004.4
20260830230059 58 229 7.0 10.0 0.00 0.00 0.24 81 1004.4
20260830225554 58 243 8.0 14.0 0.00 0.00 0.24 81 1004.4
20260830225050 58 225 9.0 17.0 0.00 0.00 0.24 81 1004.3
20260830224544 58 238 10.0 27.0 0.00 0.00 0.24 81 1004.4
20260830224039 58 256 14.0 15.0 0.00 0.00 0.24 81 1004.3
20260830223534 58 225 10.0 20.0 0.00 0.00 0.24 82 1004.5
20260830223028 58 225 15.0 17.0 0.00 0.00 0.24 81 1004.4
20260830222524 58 270 11.0 12.0 0.00 0.00 0.24 80 1004.3
20260830222018 58 229 11.0 18.0 0.00 0.00 0.24 81 1004.4
20260830221513 58 261 13.0 22.0 0.00 0.00 0.24 81 1004.3
20260830221008 58 270 10.0 16.0 0.00 0.00 0.24 81 1004.4
20260830220502 58 270 5.0 16.0 0.00 0.00 0.24 81 1004.4
20260830215958 58 229 10.0 13.0 0.00 0.00 0.24 81 1004.3
20260830215452 59 225 6.0 14.0 0.00 0.00 0.24 81 1004.3
20260830214947 59 229 10.0 14.0 0.00 0.00 0.24 81 1004.3
20260830214442 59 243 10.0 11.0 0.00 0.00 0.24 81 1004.3
20260830213936 59 256 13.0 13.0 0.00 0.00 0.24 81 1004.2
20260830213432 59 225 14.0 17.0 0.00 0.00 0.24 81 1004.1
20260830212926 59 243 10.0 19.0 0.00 0.00 0.24 82 1004.3
20260830212421 59 279 11.0 16.0 0.00 0.00 0.24 82 1004.2
20260830211916 59 243 16.0 16.0 0.00 0.00 0.24 82 1004.2
20260830211410 59 270 5.0 18.0 0.00 0.00 0.24 82 1004.1
20260830210906 59 234 13.0 15.0 0.00 0.00 0.24 82 1004.0
20260830210400 59 234 13.0 17.0 0.00 0.00 0.24 83 1004.0
20260830205855 59 270 12.0 18.0 0.00 0.00 0.24 83 1003.9
20260830205350 59 261 10.0 16.0 0.00 0.00 0.24 84 1003.9
20260830204844 59 247 15.0 15.0 0.00 0.00 0.24 84 1003.8
20260830204340 59 229 8.0 16.0 0.00 0.00 0.24 84 1003.7
20260830203834 59 243 10.0 14.0 0.00 0.00 0.24 84 1003.8
20260830203329 59 234 5.0 18.0 0.00 0.00 0.24 83 1003.7
20260830202824 59 243 8.0 23.0 0.00 0.00 0.24 84 1003.7
20260830202318 59 247 8.0 18.0 0.00 0.00 0.24 84 1003.6
20260830201814 59 261 18.0 20.0 0.00 0.00 0.24 84 1003.6
20260830201308 59 279 12.0 19.0 0.00 0.00 0.24 85 1003.5
20260830200803 59 279 18.0 18.0 0.00 0.00 0.24 86 1003.5
20260830200258 59 265 16.0 21.0 0.00 0.00 0.24 86 1003.3
20260830195752 59 261 10.0 23.0 0.00 0.00 0.24 86 1003.3
20260830195248 59 256 14.0 21.0 0.00 0.00 0.24 87 1003.3
20260830194742 59 238 9.0 13.0 0.00 0.00 0.24 87 1003.3
20260830194237 59 247 6.0 11.0 0.00 0.00 0.24 87 1003.2
20260830193226 59 270 10.0 19.0 0.00 0.00 0.24 89 1003.0
20260830192722 59 261 17.0 20.0 0.00 0.00 0.24 89 1002.8
20260830192216 59 256 10.0 20.0 0.00 0.00 0.24 90 1002.8
20260830191711 59 243 11.0 17.0 0.00 0.00 0.24 91 1002.9
20260830191206 59 261 9.0 11.0 0.00 0.00 0.24 91 1002.8
20260830190701 60 270 10.0 17.0 0.00 0.00 0.24 91 1002.6
20260830190156 60 0 4.0 13.0 0.00 0.00 0.24 92 1002.6
20260830185650 60 265 22.0 22.0 0.00 0.00 0.24 93 1002.5
20260830185145 60 243 11.0 14.0 0.00 0.00 0.24 92 1002.4
20260830184640 60 225 3.0 11.0 0.00 0.00 0.24 92 1002.4
20260830184135 60 165 3.0 17.0 0.00 0.00 0.24 93 1002.3
20260830183630 60 216 2.0 4.0 0.00 0.00 0.24 93 1002.2
20260830183124 60 270 0.0 2.0 0.00 0.00 0.24 93 1002.1
20260830182619 60 270 2.0 8.0 0.00 0.00 0.24 93 1002.2
20260830182114 60 4 2.0 5.0 0.00 0.00 0.24 93 1002.0
20260830181609 60 207 2.0 7.0 0.00 0.00 0.24 93 1001.9
20260830181104 60 315 1.0 5.0 0.00 0.00 0.24 92 1001.9
20260830180558 60 0 1.0 5.0 0.00 0.00 0.24 93 1001.9
20260830180053 60 72 2.0 6.0 0.00 0.00 0.24 93 1001.8
20260830175548 60 261 3.0 6.0 0.00 0.00 0.24 93 1001.8
20260830175043 60 288 2.0 7.0 0.00 0.00 0.24 94 1001.7
20260830174538 60 252 5.0 8.0 0.00 0.00 0.24 93 1001.6
20260830174032 60 94 1.0 5.0 0.00 0.00 0.24 94 1001.7
20260830173527 60 225 2.0 5.0 0.00 0.00 0.24 93 1001.3
20260830173022 60 288 3.0 4.0 0.00 0.00 0.24 93 1001.4
20260830172517 60 315 5.0 5.0 0.00 0.00 0.24 93 1001.2
20260830172012 60 256 0.0 7.0 0.00 0.00 0.24 93 1001.2
20260830171506 60 315 1.0 7.0 0.00 0.00 0.24 93 1001.2
20260830171001 60 202 2.0 10.0 0.00 0.00 0.24 93 1001.1
20260830170456 60 346 4.0 8.0 0.00 0.00 0.24 93 1001.1
20260830165951 60 15 7.0 10.0 0.00 0.00 0.24 93 1000.8
20260830165446 60 211 5.0 11.0 0.00 0.00 0.24 93 1000.8
20260830164940 60 180 1.0 7.0 0.00 0.00 0.24 93 1000.8
20260830164435 60 315 5.0 7.0 0.00 0.00 0.24 93 1000.7
20260830163930 60 153 2.0 9.0 0.00 0.00 0.24 93 1000.5
20260830163425 60 279 8.0 11.0 0.00 0.00 0.24 93 1000.4
20260830162920 60 40 2.0 8.0 0.00 0.00 0.24 93 1000.3
20260830162414 60 337 2.0 9.0 0.00 0.00 0.24 94 1000.2
20260830161909 61 328 2.0 10.0 0.00 0.00 0.24 94 1000.2
20260830161404 61 337 2.0 15.0 0.00 0.00 0.24 93 1000.1
20260830160859 61 31 9.0 14.0 0.00 0.00 0.24 94 1000.0